Year,Month,Day,Hour,Minute,Value (Times are PST for temperature in C)
2017,05,02,00,00,5.60
2017,05,02,00,01,5.60
2017,05,02,00,02,5.50
2017,05,02,00,03,5.50
2017,05,02,00,04,5.50
2017,05,02,00,05,5.50
2017,05,02,00,06,5.50
2017,05,02,00,07,5.40
2017,05,02,00,08,5.40
2017,05,02,00,09,5.40
2017,05,02,00,10,5.30
2017,05,02,00,11,5.30
2017,05,02,00,12,5.30
2017,05,02,00,13,5.30
2017,05,02,00,14,5.30
2017,05,02,00,15,5.30
2017,05,02,00,16,5.30
2017,05,02,00,17,5.30
2017,05,02,00,18,5.30
2017,05,02,00,19,5.20
2017,05,02,00,20,5.20
2017,05,02,00,21,5.20
2017,05,02,00,22,5.20
2017,05,02,00,23,5.20
2017,05,02,00,24,5.20
2017,05,02,00,25,5.20
2017,05,02,00,26,5.20
2017,05,02,00,27,5.10
2017,05,02,00,28,5.10
2017,05,02,00,29,5.10
2017,05,02,00,30,5.10
2017,05,02,00,31,5.10
2017,05,02,00,32,5.10
2017,05,02,00,33,5.10
2017,05,02,00,34,5.10
2017,05,02,00,35,5.10
2017,05,02,00,36,5.10
2017,05,02,00,37,5.10
2017,05,02,00,38,5.10
2017,05,02,00,39,5.10
2017,05,02,00,40,5.10
2017,05,02,00,41,5.10
2017,05,02,00,42,5.10
2017,05,02,00,43,5.10
2017,05,02,00,44,5.10
2017,05,02,00,45,5.10
2017,05,02,00,46,5.00
2017,05,02,00,47,4.90
2017,05,02,00,48,4.90
2017,05,02,00,49,4.90
2017,05,02,00,50,4.90
2017,05,02,00,51,4.90
2017,05,02,00,52,4.90
2017,05,02,00,53,4.90
2017,05,02,00,54,4.80
2017,05,02,00,55,4.80
2017,05,02,00,56,4.80
2017,05,02,00,57,4.80
2017,05,02,00,58,4.80
2017,05,02,00,59,4.80
2017,05,02,01,00,4.80
2017,05,02,01,01,4.70
2017,05,02,01,02,4.70
2017,05,02,01,03,4.70
2017,05,02,01,04,4.70
2017,05,02,01,05,4.70
2017,05,02,01,06,4.70
2017,05,02,01,07,4.70
2017,05,02,01,08,4.70
2017,05,02,01,09,4.60
2017,05,02,01,10,4.60
2017,05,02,01,11,4.60
2017,05,02,01,12,4.60
2017,05,02,01,13,4.60
2017,05,02,01,14,4.60
2017,05,02,01,15,4.60
2017,05,02,01,16,4.60
2017,05,02,01,17,4.60
2017,05,02,01,18,4.60
2017,05,02,01,19,4.60
2017,05,02,01,20,4.50
2017,05,02,01,21,4.50
2017,05,02,01,22,4.50
2017,05,02,01,23,4.50
2017,05,02,01,24,4.50
2017,05,02,01,25,4.50
2017,05,02,01,26,4.50
2017,05,02,01,27,4.50
2017,05,02,01,28,4.50
2017,05,02,01,29,4.50
2017,05,02,01,30,4.50
2017,05,02,01,31,4.50
2017,05,02,01,32,4.50
2017,05,02,01,33,4.50
2017,05,02,01,34,4.50
2017,05,02,01,35,4.40
2017,05,02,01,36,4.40
2017,05,02,01,37,4.40
2017,05,02,01,38,4.40
2017,05,02,01,39,4.40
2017,05,02,01,40,4.40
2017,05,02,01,41,4.30
2017,05,02,01,42,4.30
2017,05,02,01,43,4.30
2017,05,02,01,44,4.30
2017,05,02,01,45,4.30
2017,05,02,01,46,4.30
2017,05,02,01,47,4.30
2017,05,02,01,48,4.30
2017,05,02,01,49,4.40
2017,05,02,01,50,4.40
2017,05,02,01,51,4.40
2017,05,02,01,52,4.40
2017,05,02,01,53,4.40
2017,05,02,01,54,4.40
2017,05,02,01,55,4.40
2017,05,02,01,56,4.40
2017,05,02,01,57,4.40
2017,05,02,01,58,4.40
2017,05,02,01,59,4.40
2017,05,02,02,00,4.30
2017,05,02,02,01,4.30
2017,05,02,02,02,4.30
2017,05,02,02,03,4.30
2017,05,02,02,04,4.20
2017,05,02,02,05,4.20
2017,05,02,02,06,4.20
2017,05,02,02,07,4.20
2017,05,02,02,08,4.20
2017,05,02,02,09,4.20
2017,05,02,02,10,4.20
2017,05,02,02,11,4.20
2017,05,02,02,12,4.20
2017,05,02,02,13,4.20
2017,05,02,02,14,4.20
2017,05,02,02,15,4.20
2017,05,02,02,16,4.20
2017,05,02,02,17,4.20
2017,05,02,02,18,4.10
2017,05,02,02,19,4.10
2017,05,02,02,20,4.10
2017,05,02,02,21,4.10
2017,05,02,02,22,4.10
2017,05,02,02,23,4.10
2017,05,02,02,24,4.10
2017,05,02,02,25,4.10
2017,05,02,02,26,4.10
2017,05,02,02,27,4.10
2017,05,02,02,28,4.10
2017,05,02,02,29,4.10
2017,05,02,02,30,4.10
2017,05,02,02,31,4.10
2017,05,02,02,32,4.10
2017,05,02,02,33,4.10
2017,05,02,02,34,4.10
2017,05,02,02,35,4.10
2017,05,02,02,36,4.00
2017,05,02,02,37,4.00
2017,05,02,02,38,4.00
2017,05,02,02,39,4.00
2017,05,02,02,40,4.00
2017,05,02,02,41,4.00
2017,05,02,02,42,4.00
2017,05,02,02,43,3.90
2017,05,02,02,44,3.90
2017,05,02,02,45,3.90
2017,05,02,02,46,3.90
2017,05,02,02,47,3.90
2017,05,02,02,48,3.90
2017,05,02,02,49,3.90
2017,05,02,02,50,3.90
2017,05,02,02,51,3.90
2017,05,02,02,52,3.90
2017,05,02,02,53,3.90
2017,05,02,02,54,3.90
2017,05,02,02,55,3.90
2017,05,02,02,56,3.90
2017,05,02,02,57,3.90
2017,05,02,02,58,3.90
2017,05,02,02,59,3.90
2017,05,02,03,00,3.90
2017,05,02,03,01,3.90
2017,05,02,03,02,3.90
2017,05,02,03,03,3.90
2017,05,02,03,04,3.90
2017,05,02,03,05,3.90
2017,05,02,03,06,3.90
2017,05,02,03,07,3.80
2017,05,02,03,08,3.80
2017,05,02,03,09,3.80
2017,05,02,03,10,3.80
2017,05,02,03,11,3.80
2017,05,02,03,12,3.80
2017,05,02,03,13,3.80
2017,05,02,03,14,3.80
2017,05,02,03,15,3.80
2017,05,02,03,16,3.80
2017,05,02,03,17,3.80
2017,05,02,03,18,3.80
2017,05,02,03,19,3.80
2017,05,02,03,20,3.80
2017,05,02,03,21,3.80
2017,05,02,03,22,3.80
2017,05,02,03,23,3.90
2017,05,02,03,24,3.90
2017,05,02,03,25,3.90
2017,05,02,03,26,3.90
2017,05,02,03,27,3.90
2017,05,02,03,28,3.90
2017,05,02,03,29,3.90
2017,05,02,03,30,3.90
2017,05,02,03,31,3.90
2017,05,02,03,32,3.90
2017,05,02,03,33,3.90
2017,05,02,03,34,3.90
2017,05,02,03,35,3.90
2017,05,02,03,36,3.90
2017,05,02,03,37,4.00
2017,05,02,03,38,4.00
2017,05,02,03,39,4.00
2017,05,02,03,40,4.00
2017,05,02,03,41,4.10
2017,05,02,03,42,4.10
2017,05,02,03,43,4.20
2017,05,02,03,44,4.40
2017,05,02,03,45,4.40
2017,05,02,03,46,4.50
2017,05,02,03,47,4.60
2017,05,02,03,48,4.60
2017,05,02,03,49,4.70
2017,05,02,03,50,4.80
2017,05,02,03,51,4.80
2017,05,02,03,52,4.90
2017,05,02,03,53,4.90
2017,05,02,03,54,5.00
2017,05,02,03,55,5.10
2017,05,02,03,56,5.10
2017,05,02,03,57,5.10
2017,05,02,03,58,5.10
2017,05,02,03,59,5.20
2017,05,02,04,00,5.20
2017,05,02,04,01,5.20
2017,05,02,04,02,5.20
2017,05,02,04,03,5.30
2017,05,02,04,04,5.30
2017,05,02,04,05,5.30
2017,05,02,04,06,5.30
2017,05,02,04,07,5.30
2017,05,02,04,08,5.30
2017,05,02,04,09,5.30
2017,05,02,04,10,5.30
2017,05,02,04,11,5.30
2017,05,02,04,12,5.40
2017,05,02,04,13,5.40
2017,05,02,04,14,5.40
2017,05,02,04,15,5.40
2017,05,02,04,16,5.40
2017,05,02,04,17,5.40
2017,05,02,04,18,5.40
2017,05,02,04,19,5.40
2017,05,02,04,20,5.40
2017,05,02,04,21,5.50
2017,05,02,04,22,5.50
2017,05,02,04,23,5.60
2017,05,02,04,24,5.60
2017,05,02,04,25,5.70
2017,05,02,04,26,5.70
2017,05,02,04,27,5.70
2017,05,02,04,28,5.70
2017,05,02,04,29,5.70
2017,05,02,04,30,5.70
2017,05,02,04,31,5.70
2017,05,02,04,32,5.70
2017,05,02,04,33,5.70
2017,05,02,04,34,5.70
2017,05,02,04,35,5.70
2017,05,02,04,36,5.70
2017,05,02,04,37,5.70
2017,05,02,04,38,5.70
2017,05,02,04,39,5.70
2017,05,02,04,40,5.70
2017,05,02,04,41,5.70
2017,05,02,04,42,5.70
2017,05,02,04,43,5.70
2017,05,02,04,44,5.70
2017,05,02,04,45,5.70
2017,05,02,04,46,5.80
2017,05,02,04,47,5.80
2017,05,02,04,48,5.80
2017,05,02,04,49,5.80
2017,05,02,04,50,5.80
2017,05,02,04,51,5.80
2017,05,02,04,52,5.90
2017,05,02,04,53,5.90
2017,05,02,04,54,5.90
2017,05,02,04,55,6.00
2017,05,02,04,56,6.00
2017,05,02,04,57,6.00
2017,05,02,04,58,6.00
2017,05,02,04,59,6.00
2017,05,02,05,00,6.00
2017,05,02,05,01,6.00
2017,05,02,05,02,6.00
2017,05,02,05,03,6.00
2017,05,02,05,04,6.10
2017,05,02,05,05,6.10
2017,05,02,05,06,6.10
2017,05,02,05,07,6.10
2017,05,02,05,08,6.20
2017,05,02,05,09,6.20
2017,05,02,05,10,6.20
2017,05,02,05,11,6.20
2017,05,02,05,12,6.20
2017,05,02,05,13,6.20
2017,05,02,05,14,6.20
2017,05,02,05,15,6.30
2017,05,02,05,16,6.30
2017,05,02,05,17,6.40
2017,05,02,05,18,6.40
2017,05,02,05,19,6.40
2017,05,02,05,20,6.40
2017,05,02,05,21,6.40
2017,05,02,05,22,6.40
2017,05,02,05,23,6.40
2017,05,02,05,24,6.40
2017,05,02,05,25,6.60
2017,05,02,05,26,6.60
2017,05,02,05,27,6.60
2017,05,02,05,28,6.60
2017,05,02,05,29,6.60
2017,05,02,05,30,6.60
2017,05,02,05,31,6.60
2017,05,02,05,32,6.60
2017,05,02,05,33,6.60
2017,05,02,05,34,6.60
2017,05,02,05,35,6.60
2017,05,02,05,36,6.60
2017,05,02,05,37,6.50
2017,05,02,05,38,6.40
2017,05,02,05,39,6.40
2017,05,02,05,40,6.40
2017,05,02,05,41,6.40
2017,05,02,05,42,6.40
2017,05,02,05,43,6.40
2017,05,02,05,44,6.40
2017,05,02,05,45,6.40
2017,05,02,05,46,6.40
2017,05,02,05,47,6.40
2017,05,02,05,48,6.40
2017,05,02,05,49,6.50
2017,05,02,05,50,6.60
2017,05,02,05,51,6.60
2017,05,02,05,52,6.60
2017,05,02,05,53,6.60
2017,05,02,05,54,6.60
2017,05,02,05,55,6.60
2017,05,02,05,56,6.60
2017,05,02,05,57,6.60
2017,05,02,05,58,6.60
2017,05,02,05,59,6.60
2017,05,02,06,00,6.70
2017,05,02,06,01,6.70
2017,05,02,06,02,6.70
2017,05,02,06,03,6.80
2017,05,02,06,04,6.80
2017,05,02,06,05,6.80
2017,05,02,06,06,6.80
2017,05,02,06,07,6.80
2017,05,02,06,08,6.80
2017,05,02,06,09,6.80
2017,05,02,06,10,6.90
2017,05,02,06,11,6.90
2017,05,02,06,12,6.90
2017,05,02,06,13,6.90
2017,05,02,06,14,7.00
2017,05,02,06,15,7.00
2017,05,02,06,16,7.00
2017,05,02,06,17,7.00
2017,05,02,06,18,7.00
2017,05,02,06,19,7.00
2017,05,02,06,20,7.00
2017,05,02,06,21,7.00
2017,05,02,06,22,7.00
2017,05,02,06,23,7.00
2017,05,02,06,24,7.00
2017,05,02,06,25,7.00
2017,05,02,06,26,7.10
2017,05,02,06,27,7.10
2017,05,02,06,28,7.10
2017,05,02,06,29,7.10
2017,05,02,06,30,7.10
2017,05,02,06,31,7.20
2017,05,02,06,32,7.20
2017,05,02,06,33,7.20
2017,05,02,06,34,7.20
2017,05,02,06,35,7.30
2017,05,02,06,36,7.30
2017,05,02,06,37,7.30
2017,05,02,06,38,7.30
2017,05,02,06,39,7.30
2017,05,02,06,40,7.30
2017,05,02,06,41,7.30
2017,05,02,06,42,7.30
2017,05,02,06,43,7.40
2017,05,02,06,44,7.40
2017,05,02,06,45,7.40
2017,05,02,06,46,7.50
2017,05,02,06,47,7.50
2017,05,02,06,48,7.60
2017,05,02,06,49,7.60
2017,05,02,06,50,7.70
2017,05,02,06,51,7.70
2017,05,02,06,52,7.70
2017,05,02,06,53,7.80
2017,05,02,06,54,7.80
2017,05,02,06,55,7.80
2017,05,02,06,56,7.80
2017,05,02,06,57,7.90
2017,05,02,06,58,7.90
2017,05,02,06,59,8.00
2017,05,02,07,00,8.10
2017,05,02,07,01,8.10
2017,05,02,07,02,8.10
2017,05,02,07,03,8.20
2017,05,02,07,04,8.20
2017,05,02,07,05,8.20
2017,05,02,07,06,8.20
2017,05,02,07,07,8.20
2017,05,02,07,08,8.20
2017,05,02,07,09,8.30
2017,05,02,07,10,8.30
2017,05,02,07,11,8.30
2017,05,02,07,12,8.40
2017,05,02,07,13,8.50
2017,05,02,07,14,8.50
2017,05,02,07,15,8.60
2017,05,02,07,16,8.70
2017,05,02,07,17,8.70
2017,05,02,07,18,8.70
2017,05,02,07,19,8.70
2017,05,02,07,20,8.80
2017,05,02,07,21,8.80
2017,05,02,07,22,8.80
2017,05,02,07,23,8.80
2017,05,02,07,24,8.90
2017,05,02,07,25,8.80
2017,05,02,07,26,8.80
2017,05,02,07,27,8.80
2017,05,02,07,28,8.90
2017,05,02,07,29,8.80
2017,05,02,07,30,8.80
2017,05,02,07,31,8.80
2017,05,02,07,32,8.80
2017,05,02,07,33,8.80
2017,05,02,07,34,8.80
2017,05,02,07,35,8.80
2017,05,02,07,36,8.80
2017,05,02,07,37,8.80
2017,05,02,07,38,8.90
2017,05,02,07,39,8.80
2017,05,02,07,40,8.90
2017,05,02,07,41,8.90
2017,05,02,07,42,8.90
2017,05,02,07,43,8.90
2017,05,02,07,44,8.90
2017,05,02,07,45,9.00
2017,05,02,07,46,9.00
2017,05,02,07,47,9.10
2017,05,02,07,48,9.10
2017,05,02,07,49,9.10
2017,05,02,07,50,9.10
2017,05,02,07,51,9.20
2017,05,02,07,52,9.20
2017,05,02,07,53,9.20
2017,05,02,07,54,9.20
2017,05,02,07,55,9.20
2017,05,02,07,56,9.20
2017,05,02,07,57,9.30
2017,05,02,07,58,9.30
2017,05,02,07,59,9.30
2017,05,02,08,00,9.40
2017,05,02,08,01,9.40
2017,05,02,08,02,9.40
2017,05,02,08,03,9.50
2017,05,02,08,04,9.50
2017,05,02,08,05,9.50
2017,05,02,08,06,9.50
2017,05,02,08,07,9.60
2017,05,02,08,08,9.60
2017,05,02,08,09,9.60
2017,05,02,08,10,9.60
2017,05,02,08,11,9.70
2017,05,02,08,12,9.70
2017,05,02,08,13,9.70
2017,05,02,08,14,9.70
2017,05,02,08,15,9.70
2017,05,02,08,16,9.70
2017,05,02,08,17,9.70
2017,05,02,08,18,9.70
2017,05,02,08,19,9.70
2017,05,02,08,20,9.70
2017,05,02,08,21,9.80
2017,05,02,08,22,9.80
2017,05,02,08,23,9.80
2017,05,02,08,24,9.90
2017,05,02,08,25,9.90
2017,05,02,08,26,9.90
2017,05,02,08,27,9.90
2017,05,02,08,28,9.90
2017,05,02,08,29,10.00
2017,05,02,08,30,10.10
2017,05,02,08,31,10.10
2017,05,02,08,32,10.10
2017,05,02,08,33,10.20
2017,05,02,08,34,10.20
2017,05,02,08,35,10.20
2017,05,02,08,36,10.20
2017,05,02,08,37,10.30
2017,05,02,08,38,10.30
2017,05,02,08,39,10.50
2017,05,02,08,40,10.60
2017,05,02,08,41,10.60
2017,05,02,08,42,10.70
2017,05,02,08,43,10.80
2017,05,02,08,44,10.90
2017,05,02,08,45,10.90
2017,05,02,08,46,10.90
2017,05,02,08,47,10.90
2017,05,02,08,48,10.90
2017,05,02,08,49,10.90
2017,05,02,08,50,10.90
2017,05,02,08,51,11.00
2017,05,02,08,52,11.10
2017,05,02,08,53,11.10
2017,05,02,08,54,11.10
2017,05,02,08,55,11.00
2017,05,02,08,56,10.90
2017,05,02,08,57,10.90
2017,05,02,08,58,10.90
2017,05,02,08,59,10.90
2017,05,02,09,00,10.90
2017,05,02,09,01,11.00
2017,05,02,09,02,11.10
2017,05,02,09,03,11.00
2017,05,02,09,04,11.00
2017,05,02,09,05,11.10
2017,05,02,09,06,11.10
2017,05,02,09,07,11.10
2017,05,02,09,08,11.10
2017,05,02,09,09,11.10
2017,05,02,09,10,11.10
2017,05,02,09,11,11.10
2017,05,02,09,12,11.20
2017,05,02,09,13,11.20
2017,05,02,09,14,11.30
2017,05,02,09,15,11.30
2017,05,02,09,16,11.40
2017,05,02,09,17,11.40
2017,05,02,09,18,11.50
2017,05,02,09,19,11.60
2017,05,02,09,20,11.70
2017,05,02,09,21,11.70
2017,05,02,09,22,11.70
2017,05,02,09,23,11.80
2017,05,02,09,24,11.80
2017,05,02,09,25,11.80
2017,05,02,09,26,11.80
2017,05,02,09,27,11.90
2017,05,02,09,28,11.90
2017,05,02,09,29,11.90
2017,05,02,09,30,12.00
2017,05,02,09,31,12.00
2017,05,02,09,32,12.10
2017,05,02,09,33,12.10
2017,05,02,09,34,12.20
2017,05,02,09,35,12.20
2017,05,02,09,36,12.30
2017,05,02,09,37,12.40
2017,05,02,09,38,12.50
2017,05,02,09,39,12.60
2017,05,02,09,40,12.60
2017,05,02,09,41,12.60
2017,05,02,09,42,12.60
2017,05,02,09,43,12.60
2017,05,02,09,44,12.50
2017,05,02,09,45,12.40
2017,05,02,09,46,12.40
2017,05,02,09,47,12.40
2017,05,02,09,48,12.50
2017,05,02,09,49,12.50
2017,05,02,09,50,12.50
2017,05,02,09,51,12.60
2017,05,02,09,52,12.60
2017,05,02,09,53,12.60
2017,05,02,09,54,12.50
2017,05,02,09,55,12.50
2017,05,02,09,56,12.50
2017,05,02,09,57,12.60
2017,05,02,09,58,12.60
2017,05,02,09,59,12.60
2017,05,02,10,00,12.50
2017,05,02,10,01,12.40
2017,05,02,10,02,12.30
2017,05,02,10,03,12.20
2017,05,02,10,04,12.10
2017,05,02,10,05,12.10
2017,05,02,10,06,12.20
2017,05,02,10,07,12.20
2017,05,02,10,08,12.10
2017,05,02,10,09,12.10
2017,05,02,10,10,12.10
2017,05,02,10,11,12.00
2017,05,02,10,12,12.00
2017,05,02,10,13,12.00
2017,05,02,10,14,12.00
2017,05,02,10,15,12.10
2017,05,02,10,16,12.10
2017,05,02,10,17,12.10
2017,05,02,10,18,12.20
2017,05,02,10,19,12.30
2017,05,02,10,20,12.30
2017,05,02,10,21,12.40
2017,05,02,10,22,12.40
2017,05,02,10,23,12.40
2017,05,02,10,24,12.50
2017,05,02,10,25,12.50
2017,05,02,10,26,12.50
2017,05,02,10,27,12.50
2017,05,02,10,28,12.50
2017,05,02,10,29,12.50
2017,05,02,10,30,12.50
2017,05,02,10,31,12.60
2017,05,02,10,32,12.60
2017,05,02,10,33,12.60
2017,05,02,10,34,12.60
2017,05,02,10,35,12.70
2017,05,02,10,36,12.70
2017,05,02,10,37,12.70
2017,05,02,10,38,12.70
2017,05,02,10,39,12.70
2017,05,02,10,40,12.70
2017,05,02,10,41,12.80
2017,05,02,10,42,12.80
2017,05,02,10,43,12.80
2017,05,02,10,44,12.90
2017,05,02,10,45,12.90
2017,05,02,10,46,12.90
2017,05,02,10,47,12.70
2017,05,02,10,48,12.70
2017,05,02,10,49,12.60
2017,05,02,10,50,12.60
2017,05,02,10,51,12.50
2017,05,02,10,52,12.40
2017,05,02,10,53,12.40
2017,05,02,10,54,12.50
2017,05,02,10,55,12.50
2017,05,02,10,56,12.40
2017,05,02,10,57,12.40
2017,05,02,10,58,12.40
2017,05,02,10,59,12.40
2017,05,02,11,00,12.40
2017,05,02,11,01,12.40
2017,05,02,11,02,12.50
2017,05,02,11,03,12.50
2017,05,02,11,04,12.50
2017,05,02,11,05,12.50
2017,05,02,11,06,12.40
2017,05,02,11,07,12.50
2017,05,02,11,08,12.50
2017,05,02,11,09,12.50
2017,05,02,11,10,12.60
2017,05,02,11,11,12.70
2017,05,02,11,12,12.90
2017,05,02,11,13,13.00
2017,05,02,11,14,13.10
2017,05,02,11,15,13.10
2017,05,02,11,16,13.00
2017,05,02,11,17,13.00
2017,05,02,11,18,12.90
2017,05,02,11,19,12.90
2017,05,02,11,20,13.00
2017,05,02,11,21,13.10
2017,05,02,11,22,13.10
2017,05,02,11,23,13.10
2017,05,02,11,24,13.10
2017,05,02,11,25,13.20
2017,05,02,11,26,13.20
2017,05,02,11,27,13.10
2017,05,02,11,28,13.10
2017,05,02,11,29,13.10
2017,05,02,11,30,13.00
2017,05,02,11,31,13.00
2017,05,02,11,32,13.00
2017,05,02,11,33,12.90
2017,05,02,11,34,13.00
2017,05,02,11,35,13.00
2017,05,02,11,36,12.90
2017,05,02,11,37,13.00
2017,05,02,11,38,13.00
2017,05,02,11,39,13.00
2017,05,02,11,40,13.00
2017,05,02,11,41,13.00
2017,05,02,11,42,12.90
2017,05,02,11,43,12.90
2017,05,02,11,44,12.80
2017,05,02,11,45,12.80
2017,05,02,11,46,12.80
2017,05,02,11,47,12.80
2017,05,02,11,48,12.80
2017,05,02,11,49,12.80
2017,05,02,11,50,12.80
2017,05,02,11,51,12.80
2017,05,02,11,52,12.80
2017,05,02,11,53,12.80
2017,05,02,11,54,12.80
2017,05,02,11,55,12.90
2017,05,02,11,56,13.00
2017,05,02,11,57,13.00
2017,05,02,11,58,13.10
2017,05,02,11,59,13.20
2017,05,02,12,00,13.30
2017,05,02,12,01,13.30
2017,05,02,12,02,13.30
2017,05,02,12,03,13.20
2017,05,02,12,04,13.10
2017,05,02,12,05,13.00
2017,05,02,12,06,12.90
2017,05,02,12,07,12.90
2017,05,02,12,08,13.00
2017,05,02,12,09,13.00
2017,05,02,12,10,13.00
2017,05,02,12,11,13.00
2017,05,02,12,12,13.10
2017,05,02,12,13,13.00
2017,05,02,12,14,13.00
2017,05,02,12,15,13.10
2017,05,02,12,16,13.10
2017,05,02,12,17,13.10
2017,05,02,12,18,13.20
2017,05,02,12,19,13.20
2017,05,02,12,20,13.30
2017,05,02,12,21,13.30
2017,05,02,12,22,13.20
2017,05,02,12,23,13.20
2017,05,02,12,24,13.10
2017,05,02,12,25,13.10
2017,05,02,12,26,13.10
2017,05,02,12,27,13.10
2017,05,02,12,28,13.20
2017,05,02,12,29,13.10
2017,05,02,12,30,13.10
2017,05,02,12,31,13.00
2017,05,02,12,32,13.00
2017,05,02,12,33,13.10
2017,05,02,12,34,13.10
2017,05,02,12,35,13.10
2017,05,02,12,36,13.20
2017,05,02,12,37,13.30
2017,05,02,12,38,13.30
2017,05,02,12,39,13.30
2017,05,02,12,40,13.30
2017,05,02,12,41,13.30
2017,05,02,12,42,13.30
2017,05,02,12,43,13.30
2017,05,02,12,44,13.30
2017,05,02,12,45,13.30
2017,05,02,12,46,13.30
2017,05,02,12,47,13.30
2017,05,02,12,48,13.30
2017,05,02,12,49,13.30
2017,05,02,12,50,13.30
2017,05,02,12,51,13.30
2017,05,02,12,52,13.30
2017,05,02,12,53,13.30
2017,05,02,12,54,13.40
2017,05,02,12,55,13.50
2017,05,02,12,56,13.50
2017,05,02,12,57,13.50
2017,05,02,12,58,13.50
2017,05,02,12,59,13.40
2017,05,02,13,00,13.30
2017,05,02,13,01,13.30
2017,05,02,13,02,13.30
2017,05,02,13,03,13.20
2017,05,02,13,04,13.20
2017,05,02,13,05,13.20
2017,05,02,13,06,13.30
2017,05,02,13,07,13.30
2017,05,02,13,08,13.30
2017,05,02,13,09,13.30
2017,05,02,13,10,13.40
2017,05,02,13,11,13.40
2017,05,02,13,12,13.40
2017,05,02,13,13,13.30
2017,05,02,13,14,13.30
2017,05,02,13,15,13.30
2017,05,02,13,16,13.20
2017,05,02,13,17,13.10
2017,05,02,13,18,13.00
2017,05,02,13,19,13.00
2017,05,02,13,20,12.90
2017,05,02,13,21,12.90
2017,05,02,13,22,12.80
2017,05,02,13,23,12.80
2017,05,02,13,24,12.80
2017,05,02,13,25,12.80
2017,05,02,13,26,12.80
2017,05,02,13,27,12.80
2017,05,02,13,28,12.80
2017,05,02,13,29,12.80
2017,05,02,13,30,12.80
2017,05,02,13,31,12.90
2017,05,02,13,32,12.90
2017,05,02,13,33,13.00
2017,05,02,13,34,13.00
2017,05,02,13,35,13.00
2017,05,02,13,36,13.00
2017,05,02,13,37,12.90
2017,05,02,13,38,12.90
2017,05,02,13,39,13.00
2017,05,02,13,40,13.00
2017,05,02,13,41,13.00
2017,05,02,13,42,13.00
2017,05,02,13,43,12.90
2017,05,02,13,44,12.90
2017,05,02,13,45,13.00
2017,05,02,13,46,13.00
2017,05,02,13,47,13.00
2017,05,02,13,48,13.00
2017,05,02,13,49,13.00
2017,05,02,13,50,12.90
2017,05,02,13,51,12.90
2017,05,02,13,52,12.80
2017,05,02,13,53,12.80
2017,05,02,13,54,12.80
2017,05,02,13,55,12.80
2017,05,02,13,56,12.80
2017,05,02,13,57,12.80
2017,05,02,13,58,12.80
2017,05,02,13,59,12.80
2017,05,02,14,00,12.80
2017,05,02,14,01,12.90
2017,05,02,14,02,12.90
2017,05,02,14,03,13.00
2017,05,02,14,04,13.10
2017,05,02,14,05,13.10
2017,05,02,14,06,13.20
2017,05,02,14,07,13.20
2017,05,02,14,08,13.20
2017,05,02,14,09,13.20
2017,05,02,14,10,13.20
2017,05,02,14,11,13.20
2017,05,02,14,12,13.20
2017,05,02,14,13,13.20
2017,05,02,14,14,13.20
2017,05,02,14,15,13.20
2017,05,02,14,16,13.10
2017,05,02,14,17,13.10
2017,05,02,14,18,13.10
2017,05,02,14,19,13.20
2017,05,02,14,20,13.20
2017,05,02,14,21,13.30
2017,05,02,14,22,13.30
2017,05,02,14,23,13.30
2017,05,02,14,24,13.30
2017,05,02,14,25,13.30
2017,05,02,14,26,13.30
2017,05,02,14,27,13.30
2017,05,02,14,28,13.30
2017,05,02,14,29,13.20
2017,05,02,14,30,13.20
2017,05,02,14,31,13.20
2017,05,02,14,32,13.20
2017,05,02,14,33,13.20
2017,05,02,14,34,13.30
2017,05,02,14,35,13.30
2017,05,02,14,36,13.30
2017,05,02,14,37,13.30
2017,05,02,14,38,13.40
2017,05,02,14,39,13.40
2017,05,02,14,40,13.50
2017,05,02,14,41,13.50
2017,05,02,14,42,13.50
2017,05,02,14,43,13.50
2017,05,02,14,44,13.50
2017,05,02,14,45,13.50
2017,05,02,14,46,13.50
2017,05,02,14,47,13.60
2017,05,02,14,48,13.60
2017,05,02,14,49,13.60
2017,05,02,14,50,13.60
2017,05,02,14,51,13.70
2017,05,02,14,52,13.70
2017,05,02,14,53,13.70
2017,05,02,14,54,13.70
2017,05,02,14,55,13.60
2017,05,02,14,56,13.60
2017,05,02,14,57,13.60
2017,05,02,14,58,13.60
2017,05,02,14,59,13.50
2017,05,02,15,00,13.50
2017,05,02,15,01,13.40
2017,05,02,15,02,13.40
2017,05,02,15,03,13.50
2017,05,02,15,04,13.50
2017,05,02,15,05,13.50
2017,05,02,15,06,13.60
2017,05,02,15,07,13.60
2017,05,02,15,08,13.50
2017,05,02,15,09,13.40
2017,05,02,15,10,13.40
2017,05,02,15,11,13.40
2017,05,02,15,12,13.50
2017,05,02,15,13,13.50
2017,05,02,15,14,13.50
2017,05,02,15,15,13.60
2017,05,02,15,16,13.60
2017,05,02,15,17,13.70
2017,05,02,15,18,13.70
2017,05,02,15,19,13.70
2017,05,02,15,20,13.70
2017,05,02,15,21,13.80
2017,05,02,15,22,13.90
2017,05,02,15,23,14.00
2017,05,02,15,24,14.00
2017,05,02,15,25,14.20
2017,05,02,15,26,14.20
2017,05,02,15,27,14.20
2017,05,02,15,28,14.20
2017,05,02,15,29,14.30
2017,05,02,15,30,14.30
2017,05,02,15,31,14.30
2017,05,02,15,32,14.40
2017,05,02,15,33,14.40
2017,05,02,15,34,14.40
2017,05,02,15,35,14.50
2017,05,02,15,36,14.50
2017,05,02,15,37,14.40
2017,05,02,15,38,14.40
2017,05,02,15,39,14.30
2017,05,02,15,40,14.20
2017,05,02,15,41,14.10
2017,05,02,15,42,14.10
2017,05,02,15,43,14.00
2017,05,02,15,44,14.00
2017,05,02,15,45,13.90
2017,05,02,15,46,13.90
2017,05,02,15,47,13.90
2017,05,02,15,48,14.00
2017,05,02,15,49,14.00
2017,05,02,15,50,14.00
2017,05,02,15,51,14.00
2017,05,02,15,52,14.00
2017,05,02,15,53,14.00
2017,05,02,15,54,14.10
2017,05,02,15,55,14.10
2017,05,02,15,56,14.10
2017,05,02,15,57,14.20
2017,05,02,15,58,14.20
2017,05,02,15,59,14.20
2017,05,02,16,00,14.20
2017,05,02,16,01,14.20
2017,05,02,16,02,14.10
2017,05,02,16,03,14.20
2017,05,02,16,04,14.20
2017,05,02,16,05,14.20
2017,05,02,16,06,14.20
2017,05,02,16,07,14.20
2017,05,02,16,08,14.20
2017,05,02,16,09,14.20
2017,05,02,16,10,14.30
2017,05,02,16,11,14.40
2017,05,02,16,12,14.50
2017,05,02,16,13,14.50
2017,05,02,16,14,14.60
2017,05,02,16,15,14.60
2017,05,02,16,16,14.70
2017,05,02,16,17,14.70
2017,05,02,16,18,14.70
2017,05,02,16,19,14.80
2017,05,02,16,20,14.80
2017,05,02,16,21,14.80
2017,05,02,16,22,14.80
2017,05,02,16,23,14.80
2017,05,02,16,24,14.80
2017,05,02,16,25,14.80
2017,05,02,16,26,14.80
2017,05,02,16,27,14.80
2017,05,02,16,28,14.80
2017,05,02,16,29,14.80
2017,05,02,16,30,14.80
2017,05,02,16,31,14.80
2017,05,02,16,32,14.80
2017,05,02,16,33,14.80
2017,05,02,16,34,14.80
2017,05,02,16,35,14.80
2017,05,02,16,36,14.70
2017,05,02,16,37,14.70
2017,05,02,16,38,14.60
2017,05,02,16,39,14.60
2017,05,02,16,40,14.60
2017,05,02,16,41,14.50
2017,05,02,16,42,14.50
2017,05,02,16,43,14.50
2017,05,02,16,44,14.50
2017,05,02,16,45,14.40
2017,05,02,16,46,14.40
2017,05,02,16,47,14.30
2017,05,02,16,48,14.20
2017,05,02,16,49,14.20
2017,05,02,16,50,14.20
2017,05,02,16,51,14.20
2017,05,02,16,52,14.20
2017,05,02,16,53,14.20
2017,05,02,16,54,14.20
2017,05,02,16,55,14.20
2017,05,02,16,56,14.20
2017,05,02,16,57,14.20
2017,05,02,16,58,14.20
2017,05,02,16,59,14.20
2017,05,02,17,00,14.20
2017,05,02,17,01,14.20
2017,05,02,17,02,14.30
2017,05,02,17,03,14.30
2017,05,02,17,04,14.40
2017,05,02,17,05,14.40
2017,05,02,17,06,14.40
2017,05,02,17,07,14.40
2017,05,02,17,08,14.30
2017,05,02,17,09,14.30
2017,05,02,17,10,14.30
2017,05,02,17,11,14.30
2017,05,02,17,12,14.30
2017,05,02,17,13,14.30
2017,05,02,17,14,14.30
2017,05,02,17,15,14.30
2017,05,02,17,16,14.30
2017,05,02,17,17,14.30
2017,05,02,17,18,14.20
2017,05,02,17,19,14.20
2017,05,02,17,20,14.20
2017,05,02,17,21,14.20
2017,05,02,17,22,14.20
2017,05,02,17,23,14.20
2017,05,02,17,24,14.20
2017,05,02,17,25,14.10
2017,05,02,17,26,14.00
2017,05,02,17,27,13.90
2017,05,02,17,28,13.80
2017,05,02,17,29,13.80
2017,05,02,17,30,13.80
2017,05,02,17,31,13.70
2017,05,02,17,32,13.70
2017,05,02,17,33,13.70
2017,05,02,17,34,13.60
2017,05,02,17,35,13.50
2017,05,02,17,36,13.30
2017,05,02,17,37,13.30
2017,05,02,17,38,13.30
2017,05,02,17,39,13.30
2017,05,02,17,40,13.30
2017,05,02,17,41,13.20